Find Marecs 2

NORAD ID: 15386 Int'l Des: 1984-114 Owner: ESA Country: I-ESA operational
HEO

Aktuelle Ansicht

3D-Globus wird geladen...

Über Marecs 2

Beschreibung wird geladen...

Nächste Überflüge

Passes for default location (London). Set your location on the main map for personalized predictions.

Höhenverlauf

Loading altitude history...

Zweizeiliger Elementsatz

1 15386U 84114B 26150.11865228 -.00000169 00000-0 00000+0 0 9994
2 15386 13.5099 333.0440 0113659 54.6334 120.2439 0.95929092112504
Epoch: 30. Mai 2026 • Age: 6 hours

Aktueller Status

Höhe 37500.9 km
Geschwindigkeit 3.00 km/s
Subsatellitenpunkt -13.30°S, 147.12°W
Startdatum 10. Nov. 1984
Alter 41.5 years
Typ other

Technische Details

Klassifizierung Payload
Masse 580.00 kg
Trockenmasse 470.00 kg
Gesamtmasse 1050.00 kg
Länge 2.50 m
Durchmesser 2.00 m
Spannweite 13.80 m
Form Box + 2 Pan
Hersteller BAES
Bus-Typ OTS
Phasenstatus In Orbit
Besitzer/Staat ESA/I-ESA

Most Searched